Theta_e
308 311 318 325 324 323 322 322 324 322 322 322 322 322 323 323 322 322 321 321 322 322
306 308 313 322 325 323 323 323 323 322 321 321 322 322 323 322 322 320 318 316 309 306
302 305 308 315 319 322 322 320 321 321 321 321 321 321 321 317 310 307 302 301 300 298
299 303 306 310 315 319 320 320 318 320 320 320 317 315 312 306 303 300 297 297 296 294
298 302 305 308 314 317 316 314 313 310 308 307 307 305 302 299 298 295 294 293 292 291
296 298 300 305 307 315 312 308 306 305 302 301 300 298 297 296 294 293 292 291 290 289
293 294 297 302 305 305 309 306 305 303 302 301 299 297 295 293 291 289 288 288 288 287
291 292 293 294 294 294 294 293 294 299 298 295 294 293 291 289 288 287 285 285 285 285
288 289 289 289 290 289 289 288 288 287 288 288 289 290 289 287 285 285 284 283 284 285
286 285 286 287 287 287 287 288 287 286 285 285 285 288 287 286 284 284 283 283 283 283
285 284 285 285 285 286 287 287 287 286 285 284 285 287 286 285 283 282 282 282 282 282
284 284 284 284 284 285 286 286 285 285 285 284 284 286 285 283 282 281 280 281 281 282
284 283 283 284 284 284 285 284 284 284 284 284 284 286 285 283 281 280 279 280 280 281
282 282 283 283 284 284 283 283 283 283 283 284 284 285 286 285 281 280 279 279 279 281
Wind_Speed
12 11 12 13 10 10 11 13 16 16 15 15 14 13 13 10 11 12 11 13 12 9
10 10 15 16 10 10 11 10 13 15 16 14 14 14 14 11 12 11 8 6 5 3
10 8 12 16 9 12 11 9 10 11 14 14 14 13 13 8 8 9 5 6 9 8
10 8 10 11 10 7 8 9 9 12 15 14 12 11 10 9 11 12 11 9 10 9
8 9 8 10 10 8 8 5 6 5 3 5 6 6 11 14 13 14 13 12 14 10
7 8 7 7 8 11 8 7 7 9 9 9 11 13 13 12 13 14 13 12 12 10
9 9 8 7 7 5 2 8 10 9 8 10 10 12 14 15 17 17 12 12 12 10
10 9 6 7 7 6 8 8 9 8 8 11 10 7 14 15 15 18 16 13 11 11
6 8 5 4 5 6 10 11 13 15 8 15 11 21 23 19 17 17 17 16 14 13
5 5 4 5 6 6 10 13 18 15 15 15 16 29 27 26 16 14 13 15 13 12
4 3 5 7 7 7 8 12 12 20 17 14 16 30 30 26 17 14 12 10 11 12
4 3 4 5 7 8 10 11 14 12 18 21 16 28 26 22 15 14 13 10 8 10
4 4 5 4 7 8 9 12 12 16 13 19 19 23 25 18 12 14 11 10 10 11
6 6 6 6 5 10 10 12 13 14 11 13 13 17 23 22 10 11 8 8 8 6
Wind_Direction
307 304 297 213 206 202 201 202 202 197 204 202 201 199 203 203 206 207 211 213 217 218
294 305 298 279 205 200 200 206 201 198 199 199 202 202 202 207 206 197 192 174 128 122
288 279 287 278 280 207 193 190 204 203 201 200 202 203 205 193 158 139 124 127 125 115
283 284 279 289 257 225 205 184 191 223 207 205 197 177 169 154 140 127 119 113 109 96
281 289 286 283 271 214 221 169 186 147 104 133 135 138 146 138 134 126 123 120 113 115
297 300 291 288 297 255 185 155 138 142 145 135 121 117 110 103 106 109 111 117 113 110
317 314 321 324 288 11 136 162 166 151 152 143 136 129 121 125 121 104 97 98 93 104
315 313 326 8 20 23 55 67 67 67 136 96 102 109 124 115 106 111 102 91 87 85
319 314 342 57 47 50 73 77 68 82 24 92 87 104 108 109 105 105 104 105 96 89
329 331 326 72 74 72 92 99 94 76 83 80 91 98 94 95 93 98 98 105 108 105
330 15 320 83 89 91 94 101 110 112 105 97 96 96 96 91 94 89 81 90 105 106
5 8 10 72 95 97 114 111 107 100 114 105 104 107 105 104 97 97 94 91 92 108
47 34 56 35 93 96 99 100 101 103 102 111 118 121 116 113 116 113 115 109 103 105
53 54 61 72 73 98 99 101 102 104 101 105 108 123 127 130 122 122 118 113 114 105